This demonstration page uses our WeatherBlox Daily Observations layout. Learn more.

Left ArrowRight Arrow

39.12711, -84.51439

Hourly Observations for May 1, 2016

Temp ( °F °C ) Dew Point ( °F °C ) Humidity (%) Winds ( mph kmh ) Pressure ( in mb ) Visibility ( mi km ) Precip ( " mm )
12:21 am 00:21 Cloudy with Light Rain 60 15.6 60 15.6 100 100 S 7 11 29.91 1013 9 14 0.00 0.03
12:34 am 00:34 Cloudy with Light Rain 61 16 61 16 100 100 SSW 6 9 29.91 1013 9 14 0.00 0.00
12:44 am 00:44 Mostly Cloudy with Light Rain 61 16 61 16 100 100 S 7 11 29.91 1013 10 16 0.00 0.00
12:53 am 00:53 Mostly Cloudy 60 15.6 60 15.6 100 100 S 6 9 29.90 1013 10 16 0.01 0.25
1:06 am 01:06 Mostly Cloudy with Light Rain 60 15.6 60 15.6 100 100 SSW 7 11 29.91 1013 8 13 0.00 0.03
1:37 am 01:37 Cloudy 61 16.1 61 16.1 100 100 SW 8 13 29.91 1013 10 16 0.00 0.03
1:53 am 01:53 Cloudy with Light Rain 60 15.6 60 15.6 100 100 SSW 6 9 29.90 1013 6 10 0.01 0.25
2:53 am 02:53 Cloudy with Light Rain 61 16.1 61 16.1 100 100 Calm 29.90 1012 6 10 0.03 0.76
3:53 am 03:53 Cloudy with Light Rain 61 16.1 61 16.1 100 100 Calm 29.89 1012 7 11 0.03 0.76
4:17 am 04:17 Mostly Cloudy with Light Rain 60 15.6 60 15.6 100 100 Calm 29.88 1012 9 14 0.00 0.03
4:53 am 04:53 Mostly Cloudy with Mist and Fog 59 15 59 15 100 100 Calm 29.88 1012 3 5 0.00 0.03
5:03 am 05:03 Partly Cloudy with Mist and Fog 59 15 59 15 100 100 Calm 29.88 1012 2 3 0.00 0.00
5:16 am 05:16 Partly Cloudy with Mist and Fog 59 15 59 15 100 100 Calm 29.91 1013 1 1 0.00 0.00
5:31 am 05:31 Mostly Cloudy with Light Rain 58 14.4 58 14.4 100 100 SSW 3 6 29.91 1013 1 2 0.00 0.03
5:43 am 05:43 Cloudy with Light Rain 59 15 59 15 100 100 SSW 3 6 29.91 1013 3 5 0.01 0.25
5:53 am 05:53 Cloudy with Light Rain 59 15 59 15 100 100 W 3 6 29.91 1013 4 6 0.01 0.25
6:53 am 06:53 Partly Cloudy with Mist and Fog 59 15 59 15 100 100 Calm 29.92 1013 6 10 0.02 0.51
7:53 am 07:53 Mostly Sunny 63 17.2 63 17.2 100 100 SW 5 7 29.91 1013 10 16 0.00 0.00
8:53 am 08:53 Partly Cloudy 65 18.3 63 17.2 93 93 SW 6 9 29.93 1014 10 16 0.00 0.00
9:53 am 09:53 Mostly Sunny 68 20 64 17.8 87 87 S 7 11 29.93 1014 10 16 0.00 0.00
10:53 am 10:53 Mostly Cloudy 70 21.1 65 18.3 84 84 S 7 11 29.93 1014 10 16 0.00 0.00
11:53 am 11:53 Mostly Cloudy 73 22.8 64 17.8 74 74 SSW 8 13 29.93 1014 10 16 0.00 0.00
12:13 pm 12:13 Mostly Cloudy 73 22.8 64 17.8 74 74 SW 6 9 29.91 1013 10 16 0.00 0.00
12:53 pm 12:53 Mostly Cloudy 74 23.3 63 17.2 69 69 SSW 3 6 29.91 1013 10 16 0.00 0.00
1:53 pm 13:53 Mostly Cloudy 74 23.3 62 16.7 67 67 VRB 3 6 29.91 1013 10 16 0.00 0.00
2:53 pm 14:53 Mostly Cloudy 76 24.4 60 15.6 58 58 SW 3 6 29.91 1013 10 16 0.00 0.00
3:53 pm 15:53 Partly Cloudy 75 23.9 63 17.2 66 66 SSE 6 9 29.88 1012 10 16 0.00 0.00
4:53 pm 16:53 Mostly Cloudy 79 26.1 60 15.6 52 52 SW 9 15 29.87 1012 10 16 0.00 0.00
5:53 pm 17:53 Partly Cloudy 78 25.6 59 15 52 52 S 7 11 29.88 1012 10 16 0.00 0.00
6:29 pm 18:29 Mostly Cloudy with Thunderstorms 73 22.8 60 15.6 64 64 S 16 26 29.88 1012 10 16 0.00 0.00
6:39 pm 18:39 Cloudy with Light Rain 71 21.7 61 16.1 71 71 SSW 20 31 29.88 1012 10 16 0.00 0.03
6:46 pm 18:46 Cloudy with Thunderstorms 68 20 63 17 83 83 SSW 10 17 29.88 1012 10 16 0.00 0.00
6:53 pm 18:53 Cloudy with Thunderstorms 67 19.4 63 17.2 87 87 SW 8 13 29.90 1013 4 6 0.06 1.52
7:08 pm 19:08 Cloudy with Light Rain 67 19.4 62 16.7 84 84 Calm 29.91 1013 6 10 0.10 2.54
7:53 pm 19:53 Cloudy 61 16 59 15 94 94 Calm 29.91 1013 8 13 0.00 0.00
8:53 pm 20:53 Cloudy 64 17.8 64 17.8 100 100 SE 6 9 29.88 1012 10 16 0.00 0.03
9:53 pm 21:53 Mostly Clear 60 15.6 60 15.6 100 100 SSE 5 7 29.89 1012 7 11 0.00 0.00
10:53 pm 22:53 Clear 59 15 58 14.4 96 96 SSW 5 7 29.87 1012 10 16 0.00 0.00
11:53 pm 23:53 Mostly Clear 59 15 59 15 100 100 SW 3 6 29.86 1011 10 16 0.00 0.00

Powered by AerisWeather